AirNav   Phillips 66 Aviation Fuel
 
 1250 users online  

6AZ8 Flying Diamond Airport
Tucson, Arizona, USA

GOING TO TUCSON?


FAA INFORMATION EFFECTIVE 11 OCTOBER 2018

Location

FAA Identifier: 6AZ8
Lat/Long: 31-56-28.0000N / 111-07-13.0000W
31-56.466667N / 111-07.216667W
31.9411111 / -111.1202778
(estimated)
Elevation: 3800 ft. / 1158 m (estimated)
Variation: 12E (1995)
From city: 15 miles SW of TUCSON, AZ
Time zone: UTC -7 (year round; does not observe DST)
Zip code: 85629

Airport Operations

Airport use: Private use. Permission required prior to landing
Activation date: 03/2000
Control tower: no
ARTCC: ALBUQUERQUE CENTER
FSS: PRESCOTT FLIGHT SERVICE STATION
Attendance: UNATNDD
Wind indicator: yes
Segmented circle: no

Airport Communications

WX AWOS-3 at RYN (12 nm N): 133.35 (520-578-0269)
WX ASOS at TUS (14 nm NE): PHONE 520-295-5727

Nearby radio navigation aids

VOR radial/distance  VOR name  Freq  Var
TUSr217/14.0TUCSON VORTAC116.0012E
OLSr324/34.5NOGALES VOR/DME108.2012E

 
NDB name  Hdg/Dist  Freq  Var  ID
RYAN158/12.033812ERYN .-. -.-- -.
ROBLES111/14.622012ERBJ .-. -... .---
MARANA158/28.724512EAVQ .- ...- --.-

Airport Services

Runway Information

Runway 7/25

Dimensions: 2650 x 35 ft. / 808 x 11 m
Surface: asphalt
RUNWAY 7  RUNWAY 25
Traffic pattern: leftleft
Obstructions: none100 ft. pline, 1000 ft. from runway

Airport Ownership and Management from official FAA records

Ownership: Privately-owned
Owner: FLYING DIAMOND AIRPARK LLC
P.O. BOX 1056
TUCSON, AZ 85629
Phone 520-399-3877
Manager: LOU COOK
HC 70 BOX 3906
SAHUARITA, AZ 85629
Phone 520-399-3877
CELL 520-403-9865

Airport Operational Statistics

Aircraft based on the field: 11
Single engine airplanes: 10
Helicopters: 1
    

Additional Remarks

FOR CD CTC TUCSON APCH AT 520-829-6121.

Instrument Procedures

There are no published instrument procedures at 6AZ8.

Some nearby airports with instrument procedures:

KRYN - Ryan Field Airport (12 nm N)
KTUS - Tucson International Airport (14 nm NE)
KDMA - Davis Monthan Air Force Base (18 nm NE)
KAVQ - Marana Regional Airport (29 nm N)
KOLS - Nogales International Airport (34 nm SE)
 
Loc | Ops | Rwys | IFR | FBO | Links
Com | Nav | Svcs | Stats | Notes


 
Area around 6AZ8 (Flying Diamond Airport)
 
Road maps at: MapQuest Bing Google
 
Aerial photo
WARNING: Photo may not be current or correct
Aerial photo of 6AZ8 (Flying Diamond Airport)
Do you have a better or more recent aerial photo of Flying Diamond Airport that you would like to share? If so, please send us your photo.

 
Sectional chart

 
Airport distance calculator
Flying to Flying Diamond Airport? Find the distance to fly.

From to 6AZ8

Sunrise and sunset
Times for 23-Oct-2018
 Local
(UTC-7)
 Zulu
(UTC)
Morning civil twilight06:1013:10
Sunrise06:3513:35
Sunset17:4300:43
Evening civil twilight18:0801:08

Current date and time
Zulu (UTC)  23-Oct-2018 21:51:12
Local (UTC-7)  23-Oct-2018 14:51:12
 
METAR
KRYN 
12nm N 
232045Z 07009KT 08SM TSRA FEW038 BKN045 BKN080 19/16 A2992
KTUS 
14nm NE 
232123Z 10016G25KT 10SM -RA BKN100 OVC110 18/13 A2992 RMK AO2 PK WND 09026/2109 LTG DSNT N AND S AND SW TSE01B04E19 P0003 T01780133
KDMA 
19nm NE 
232111Z AUTO 09014G22KT 6SM RA BR OVC070 17/15 A2994 RMK AO2 LTG DSNT S-N TSE11 SLP110 $
TAF
KTUS 
14nm NE 
231720Z 2318/2418 12012KT P6SM VCTS BKN060CB BKN120 TEMPO 2318/2321 VRB15G25KT 4SM TSRA FEW030 BKN050CB OVC100 FM240200 13008KT P6SM SCT070 BKN150
KDMA 
19nm NE 
231402Z 2314/2420 10009KT 9999 FEW100 QNH2991INS BECMG 2318/2319 VRB12G18KT 9999 VCTS BKN060CB QNH2987INS TEMPO 2321/2324 VRB20G30KT 8000 -TSRAGR BKN060CB OVC100 BECMG 2400/2401 10012KT 9000 -SHRA BKN060 QNH2988INS BECMG 2402/2403 10009KT 9999 NSW SCT060 BKN100 QNH2991INS BECMG 2408/2409 10009KT 9999 FEW180 QNH2991INS TX27/2321Z TN18/2314Z
NOTAMs
Click for the latest NOTAMs
NOTAMs are issued by the DoD/FAA and will open in a separate window not controlled by AirNav.

 

 
 

Would you like to see your business listed on this page?

 If your business provides an interesting product or service to pilots, flight crews, aircraft, or users of the Flying Diamond Airport, you should consider listing it here.  To start the listing process, click on the button below
 
Add a business
 

Other Pages about Flying Diamond Airport

www.fdairpark.com
 
Update a link
 
Copyright © AirNav, LLC. All rights reserved. Privacy Policy  Contact